Location: Audinghen
(50.8518°N, 1.6129°E)
Time: 10:45:17
(UTC+00:00)

Cosmos 1470 - Pass Details

Date: 07 August 2020
Orbit: 520 x 543 km, 82.5° (Epoch: 20 September)

Event Time Altitude Azimuth Distance (km) Brightness Sun altitude
Exits shadow 02:41:30 17° 180° (S) 1,426 4.5 -14.0°
Maximum altitude 02:44:31 72° 98° (E) 576 3.0 -13.7°
Drops below altitude 10° 02:48:30 10° 14° (NNE) 1,821 6.5 -13.3°
Sets 02:50:41 0° 12° (NNE) 2,720 7.5 -13.1°
